Weather History for KIMT - February, 2014

Change the Weather History Date:

Friday, February 21, 2014

  Actual Average Record
Temperature  
Mean Temperature 23 °F -  
Max Temperature 34 °F 32 °F 50 °F (1961)
Min Temperature 12 °F 10 °F -20 °F (2008)
Degree Days  
Heating Degree Days 42    
Moisture  
Dew Point 19 °F    
Average Humidity 80    
Maximum Humidity 96    
Minimum Humidity 67    
Precipitation  
Precipitation 0.02 in - - ()
Sea Level Pressure  
Sea Level Pressure 29.06 in    
Wind  
Wind Speed 13 mph (SW)    
Max Wind Speed 22 mph    
Max Gust Speed 41 mph    
Visibility 4 miles    
Events Fog , Rain , Snow    
Averages and records for this station are not official NWS values.
T = Trace of Precipitation, MM = Missing Value Source: NWS Daily Summary

Daily Weather History Graph

Daily Weather History Graph

Search for Another Location

Airport or City:

Trip Planner

Search our weather history database for the weather conditions in past years. The results will help you decide how hot, cold, wet, or windy it might be!

Date:

Astronomy

Feb. 21, 2014 Rise Set
Actual Time 6:44 AM CST 5:27 PM CST
Civil Twilight 6:14 AM CST 5:58 PM CST
Nautical Twilight 5:40 AM CST 6:32 PM CST
Astronomical Twilight 5:05 AM CST 7:07 PM CST
Moon No Moon Rise 9:48 AM CST (2/21)
Length of Visible Light 11h 43m
Length of Day
10h 42m
Waning Gibbous, 60% of the Moon is Illuminated
Feb 21
Waning Gibbous
Feb 22
Last Quarter
Mar 1
New
Mar 8
First Quarter
Mar 16
Full

Hourly Weather History & Observations

Time (CST) Temp. Windchill Dew Point Humidity Pressure Visibility Wind Dir Wind Speed Gust Speed Precip Events Conditions
12:19 AM 33.8 °F 24.8 °F 30.2 °F 87% 28.88 in 3.0 mi ESE 12.7 mph 20.7 mph 0.00 in Rain Light Rain
12:36 AM 33.8 °F 25.8 °F 32.0 °F 93% 28.87 in 2.5 mi ESE 10.4 mph 23.0 mph 0.00 in Rain Light Rain
12:46 AM 33.8 °F 25.3 °F 32.0 °F 93% 28.85 in 4.0 mi East 11.5 mph 20.7 mph 0.00 in Rain Light Rain
12:54 AM 34.0 °F 26.0 °F 32.0 °F 92% 28.88 in 3.0 mi ESE 10.4 mph - 0.00 in Rain Light Rain
1:02 AM 33.8 °F 27.0 °F 32.0 °F 93% 28.84 in 2.5 mi SE 8.1 mph - 0.00 in Snow Light Snow
1:42 AM 33.8 °F 25.8 °F 32.0 °F 93% 28.84 in 3.0 mi SE 10.4 mph - 0.01 in Snow Light Snow
1:52 AM 33.8 °F 25.8 °F 32.0 °F 93% 28.83 in 2.0 mi SE 10.4 mph - 0.01 in Snow Light Snow
1:54 AM 33.1 °F 25.5 °F 32.0 °F 96% 28.87 in 2.0 mi SE 9.2 mph - 0.01 in Snow Light Snow
2:02 AM 33.8 °F 27.0 °F 32.0 °F 93% 28.83 in 1.5 mi SE 8.1 mph - 0.00 in Snow Light Snow
2:44 AM 33.8 °F 26.4 °F 30.2 °F 87% 28.80 in 3.0 mi SSE 9.2 mph - 0.00 in Snow Light Snow
2:54 AM 33.1 °F 24.9 °F 30.9 °F 92% 28.83 in 3.0 mi SSE 10.4 mph - 0.00 in Snow Light Snow
3:01 AM 33.8 °F 25.8 °F 30.2 °F 87% 28.79 in 2.0 mi SSE 10.4 mph - 0.00 in Snow Light Snow
3:09 AM 33.8 °F 26.4 °F 30.2 °F 87% 28.79 in 1.8 mi SSE 9.2 mph - 0.00 in Snow Light Snow
3:34 AM 33.8 °F 26.4 °F 30.2 °F 87% 28.79 in 3.0 mi SSE 9.2 mph - 0.00 in Snow Light Snow
3:54 AM 33.1 °F 24.4 °F 30.9 °F 92% 28.83 in 4.0 mi South 11.5 mph - 0.00 in Snow Light Snow
4:35 AM 33.8 °F 24.3 °F 30.2 °F 87% 28.83 in 1.8 mi South 13.8 mph - 0.00 in Snow Light Snow
4:45 AM 33.8 °F 25.3 °F 30.2 °F 87% 28.85 in 1.8 mi SSW 11.5 mph - 0.00 in Snow Light Snow
4:54 AM 33.1 °F 23.4 °F 30.9 °F 92% 28.88 in 2.0 mi SSW 13.8 mph 20.7 mph 0.00 in Snow Light Snow
5:01 AM 33.8 °F 25.3 °F 30.2 °F 87% 28.85 in 1.2 mi SW 11.5 mph 23.0 mph 0.00 in Snow Light Snow
5:48 AM 33.8 °F 24.8 °F 30.2 °F 87% 28.88 in 0.8 mi SW 12.7 mph 20.7 mph 0.00 in Snow Light Snow
5:54 AM 33.1 °F 24.9 °F 30.9 °F 92% 28.91 in 1.0 mi SW 10.4 mph 19.6 mph 0.00 in Snow Light Snow
6:04 AM 33.8 °F 24.3 °F 30.2 °F 87% 28.88 in 1.2 mi SW 13.8 mph 23.0 mph 0.00 in Snow Light Snow
6:51 AM 30.2 °F 20.2 °F 28.4 °F 93% 28.90 in 0.5 mi SW 12.7 mph 25.3 mph 0.00 in Fog , Snow Snow
6:54 AM 30.9 °F 20.7 °F 28.0 °F 89% 28.94 in 0.5 mi SW 13.8 mph 23.0 mph 0.00 in Fog , Snow Snow
7:26 AM 28.4 °F 14.7 °F 24.8 °F 86% 28.93 in 0.8 mi SW 21.9 mph 39.1 mph 0.01 in Snow Light Snow
7:31 AM 28.4 °F 14.7 °F 24.8 °F 86% 28.93 in 1.0 mi SW 21.9 mph 33.4 mph 0.01 in Snow Light Snow
7:54 AM 27.0 °F 13.2 °F 21.9 °F 81% 28.98 in 1.2 mi WSW 20.7 mph 38.0 mph 0.01 in Snow Light Snow
8:09 AM 26.6 °F 13.4 °F 21.2 °F 80% 28.95 in 1.0 mi WSW 18.4 mph 29.9 mph 0.00 in Snow Light Snow
8:32 AM 24.8 °F 11.5 °F 19.4 °F 80% 28.96 in 2.5 mi SW 17.3 mph 21.9 mph 0.00 in Snow Light Snow
8:54 AM 24.1 °F 12.0 °F 18.0 °F 77% 29.02 in 3.0 mi WSW 13.8 mph 24.2 mph 0.00 in Snow Light Snow
9:54 AM 21.9 °F 8.7 °F 15.1 °F 75% 29.07 in 6.0 mi WSW 15.0 mph 28.8 mph 0.00 in   Overcast
10:32 AM 19.4 °F 3.6 °F 12.2 °F 74% 29.05 in 2.0 mi WSW 19.6 mph 36.8 mph 0.00 in Snow Light Snow
10:44 AM 19.4 °F 5.5 °F 12.2 °F 74% 29.06 in 6.0 mi West 15.0 mph 25.3 mph 0.00 in Snow Light Snow
10:54 AM 19.9 °F 5.2 °F 12.0 °F 71% 29.11 in 7.0 mi West 17.3 mph 31.1 mph 0.00 in   Overcast
11:54 AM 19.0 °F 2.4 °F 10.9 °F 71% 29.14 in 2.5 mi WSW 21.9 mph 33.4 mph 0.00 in Snow Light Snow
12:05 PM 19.4 °F 3.6 °F 10.4 °F 68% 29.10 in 8.0 mi WSW 19.6 mph 31.1 mph 0.00 in   Overcast
12:54 PM 19.0 °F 5.6 °F 10.9 °F 71% 29.16 in 8.0 mi WSW 13.8 mph 24.2 mph 0.00 in Snow Light Snow
1:23 PM 19.4 °F 4.5 °F 10.4 °F 68% 29.12 in 2.5 mi WSW 17.3 mph 28.8 mph 0.00 in Snow Light Snow
1:35 PM 19.4 °F 4.1 °F 12.2 °F 74% 29.12 in 4.0 mi WSW 18.4 mph 33.4 mph 0.00 in Snow Light Snow
1:54 PM 19.9 °F 3.5 °F 12.0 °F 71% 29.18 in 5.0 mi WSW 21.9 mph 33.4 mph 0.00 in Snow Light Snow
2:39 PM 19.4 °F 4.5 °F 12.2 °F 74% 29.16 in 2.5 mi WSW 17.3 mph 28.8 mph 0.00 in Snow Light Snow
2:54 PM 19.9 °F 7.3 °F 12.0 °F 71% 29.21 in 3.0 mi WSW 12.7 mph 27.6 mph 0.00 in Snow Light Snow
3:00 PM 19.4 °F 5.0 °F 12.2 °F 74% 29.17 in 2.5 mi WSW 16.1 mph 24.2 mph 0.00 in Snow Light Snow
3:19 PM 19.4 °F 3.6 °F 10.4 °F 68% 29.19 in 3.0 mi WSW 19.6 mph 41.4 mph 0.00 in Snow Light Snow
3:54 PM 19.9 °F 7.9 °F 12.0 °F 71% 29.26 in 8.0 mi West 11.5 mph 23.0 mph 0.00 in   Overcast
4:54 PM 19.0 °F 5.0 °F 10.0 °F 68% 29.30 in 6.0 mi WSW 15.0 mph 25.3 mph 0.00 in Snow Light Snow
5:54 PM 16.0 °F 1.1 °F 8.1 °F 71% 29.35 in 6.0 mi West 15.0 mph 28.8 mph 0.00 in   Haze
6:54 PM 14.0 °F -0.2 °F 5.0 °F 67% 29.39 in 10.0 mi West 12.7 mph 26.5 mph N/A   Mostly Cloudy
7:02 PM 14.0 °F -0.2 °F 5.0 °F 67% 29.33 in 10.0 mi West 12.7 mph 25.3 mph N/A   Scattered Clouds
7:54 PM 12.9 °F -1.6 °F 5.0 °F 71% 29.42 in 10.0 mi West 12.7 mph 18.4 mph N/A   Scattered Clouds
8:31 PM 12.2 °F -1.8 °F 5.0 °F 73% 29.38 in 10.0 mi West 11.5 mph 19.6 mph N/A   Overcast
8:54 PM 14.0 °F -3.4 °F 5.0 °F 67% 29.45 in 10.0 mi WSW 19.6 mph 29.9 mph N/A   Overcast
9:54 PM 12.9 °F 0.7 °F 5.0 °F 71% 29.48 in 10.0 mi West 9.2 mph 20.7 mph N/A   Mostly Cloudy
10:30 PM 12.2 °F -0.2 °F 3.2 °F 67% 29.42 in 10.0 mi West 9.2 mph 25.3 mph N/A   Scattered Clouds
10:54 PM 12.9 °F -0.9 °F 3.9 °F 67% 29.50 in 10.0 mi West 11.5 mph 20.7 mph N/A   Scattered Clouds
11:18 PM 12.2 °F -3.7 °F 3.2 °F 67% 29.44 in 10.0 mi West 15.0 mph 21.9 mph N/A   Mostly Cloudy
11:54 PM 12.0 °F -0.4 °F 3.0 °F 67% 29.52 in 10.0 mi West 9.2 mph 21.9 mph N/A   Overcast